| time (UTC) | temp F | wind direction | speed MPH | gust MPH | rain 1hr in | rain 24hr in | rain mn in | humidity % | barometer mb |
| 20260503234521 | 58 | 228 | 0.0 | 0.0 | 0.00 | 0.00 | 0.00 | 63 | 1017.6 |
| 20260503231524 | 64 | 316 | 0.0 | 0.0 | 0.00 | 0.00 | 0.00 | 45 | 1017.9 |
| 20260503230953 | 64 | 265 | 0.0 | 0.0 | 0.00 | 0.00 | 0.00 | 45 | 1017.9 |
| 20260503230351 | 64 | 239 | 0.0 | 0.0 | 0.00 | 0.00 | 0.00 | 39 | 1017.6 |
| 20260503225724 | 65 | 258 | 0.0 | 0.0 | 0.00 | 0.00 | 0.00 | 39 | 1017.9 |
| 20260503225148 | 65 | 232 | 0.0 | 0.0 | 0.00 | 0.00 | 0.00 | 36 | 1017.9 |
| 20260503224527 | 65 | 219 | 0.0 | 0.0 | 0.00 | 0.00 | 0.00 | 34 | 1017.9 |
| 20260503223912 | 65 | 252 | 4.0 | 5.0 | 0.00 | 0.00 | 0.00 | 36 | 1017.9 |
| 20260503223351 | 65 | 110 | 6.0 | 7.0 | 0.00 | 0.00 | 0.00 | 33 | 1017.9 |
| 20260503222727 | 65 | 285 | 0.0 | 0.0 | 0.00 | 0.00 | 0.00 | 32 | 1017.9 |
| 20260503222144 | 65 | 186 | 0.0 | 0.0 | 0.00 | 0.00 | 0.00 | 33 | 1017.9 |
| 20260503221527 | 65 | 277 | 0.0 | 0.0 | 0.00 | 0.00 | 0.00 | 35 | 1017.9 |
| 20260503220909 | 66 | 338 | 5.0 | 7.0 | 0.00 | 0.00 | 0.00 | 33 | 1017.9 |
| 20260503220333 | 66 | 185 | 4.0 | 7.0 | 0.00 | 0.00 | 0.00 | 32 | 1017.9 |
| 20260503215723 | 65 | 257 | 2.0 | 5.0 | 0.00 | 0.00 | 0.00 | 35 | 1017.9 |
| 20260503215141 | 65 | 312 | 4.0 | 7.0 | 0.00 | 0.00 | 0.00 | 34 | 1018.2 |
| 20260503214519 | 65 | 78 | 6.0 | 17.0 | 0.00 | 0.00 | 0.00 | 35 | 1017.9 |
| 20260503213944 | 65 | 341 | 3.0 | 5.0 | 0.00 | 0.00 | 0.00 | 33 | 1018.2 |
| 20260503213328 | 65 | 276 | 2.0 | 5.0 | 0.00 | 0.00 | 0.00 | 34 | 1018.2 |
| 20260503212750 | 65 | 256 | 0.0 | 2.0 | 0.00 | 0.00 | 0.00 | 35 | 1017.9 |
| 20260503212128 | 65 | 303 | 4.0 | 7.0 | 0.00 | 0.00 | 0.00 | 35 | 1018.2 |
| 20260503211543 | 65 | 183 | 2.0 | 2.0 | 0.00 | 0.00 | 0.00 | 32 | 1017.9 |
| 20260503210933 | 65 | 299 | 2.0 | 5.0 | 0.00 | 0.00 | 0.00 | 32 | 1018.2 |
| 20260503210349 | 65 | 1 | 7.0 | 10.0 | 0.00 | 0.00 | 0.00 | 32 | 1018.2 |
| 20260503205719 | 65 | 327 | 6.0 | 7.0 | 0.00 | 0.00 | 0.00 | 31 | 1018.2 |
| 20260503203914 | 64 | 147 | 4.0 | 5.0 | 0.00 | 0.00 | 0.00 | 33 | 1018.6 |
| 20260503203343 | 64 | 225 | 0.0 | 0.0 | 0.00 | 0.00 | 0.00 | 32 | 1018.6 |
| 20260503202733 | 65 | 304 | 1.0 | 2.0 | 0.00 | 0.00 | 0.00 | 35 | 1018.9 |
| 20260503202127 | 65 | 46 | 7.0 | 10.0 | 0.00 | 0.00 | 0.00 | 33 | 1018.9 |
| 20260503201509 | 64 | 225 | 0.0 | 2.0 | 0.00 | 0.00 | 0.00 | 31 | 1019.3 |
| 20260503200953 | 64 | 308 | 4.0 | 7.0 | 0.00 | 0.00 | 0.00 | 35 | 1018.9 |
| 20260503200321 | 64 | 216 | 0.0 | 2.0 | 0.00 | 0.00 | 0.00 | 33 | 1019.3 |
| 20260503195119 | 64 | 310 | 4.0 | 7.0 | 0.00 | 0.00 | 0.00 | 37 | 1019.6 |
| 20260503194527 | 64 | 8 | 0.0 | 2.0 | 0.00 | 0.00 | 0.00 | 31 | 1019.6 |
| 20260503193935 | 64 | 185 | 0.0 | 2.0 | 0.00 | 0.00 | 0.00 | 35 | 1019.9 |
| 20260503193341 | 63 | 291 | 0.0 | 0.0 | 0.00 | 0.00 | 0.00 | 42 | 1019.6 |
| 20260503192753 | 63 | 306 | 3.0 | 7.0 | 0.00 | 0.00 | 0.00 | 36 | 1019.9 |
| 20260503192120 | 63 | 256 | 4.0 | 5.0 | 0.00 | 0.00 | 0.00 | 36 | 1019.9 |
| 20260503190909 | 62 | 149 | 0.0 | 0.0 | 0.00 | 0.00 | 0.00 | 35 | 1019.9 |
| 20260503185750 | 62 | 216 | 0.0 | 0.0 | 0.00 | 0.00 | 0.00 | 36 | 1020.6 |
| 20260503185141 | 62 | 358 | 4.0 | 7.0 | 0.00 | 0.00 | 0.00 | 35 | 1020.6 |
| 20260503184540 | 62 | 335 | 3.0 | 5.0 | 0.00 | 0.00 | 0.00 | 37 | 1020.9 |
| 20260503183353 | 62 | 352 | 10.0 | 12.0 | 0.00 | 0.00 | 0.00 | 37 | 1020.9 |
| 20260503182749 | 62 | 197 | 0.0 | 2.0 | 0.00 | 0.00 | 0.00 | 36 | 1020.9 |
| 20260503182146 | 62 | 259 | 3.0 | 5.0 | 0.00 | 0.00 | 0.00 | 40 | 1020.9 |
| 20260503181545 | 61 | 266 | 0.0 | 0.0 | 0.00 | 0.00 | 0.00 | 44 | 1021.3 |
| 20260503180335 | 60 | 207 | 2.0 | 5.0 | 0.00 | 0.00 | 0.00 | 35 | 1021.3 |
| 20260503175731 | 60 | 175 | 0.0 | 0.0 | 0.00 | 0.00 | 0.00 | 43 | 1021.3 |
| 20260503175123 | 60 | 291 | 0.0 | 0.0 | 0.00 | 0.00 | 0.00 | 40 | 1021.3 |
| 20260503174550 | 59 | 337 | 5.0 | 7.0 | 0.00 | 0.00 | 0.00 | 38 | 1021.6 |
| 20260503173918 | 59 | 190 | 0.0 | 0.0 | 0.00 | 0.00 | 0.00 | 40 | 1021.6 |
| 20260503173309 | 59 | 228 | 5.0 | 7.0 | 0.00 | 0.00 | 0.00 | 43 | 1021.6 |
| 20260503172730 | 59 | 186 | 2.0 | 5.0 | 0.00 | 0.00 | 0.00 | 47 | 1021.6 |
| 20260503172124 | 58 | 231 | 0.0 | 0.0 | 0.00 | 0.00 | 0.00 | 38 | 1021.6 |
| 20260503171538 | 59 | 270 | 2.0 | 5.0 | 0.00 | 0.00 | 0.00 | 38 | 1022.0 |
| 20260503170935 | 58 | 225 | 5.0 | 7.0 | 0.00 | 0.00 | 0.00 | 41 | 1022.0 |
| 20260503170347 | 58 | 259 | 3.0 | 5.0 | 0.00 | 0.00 | 0.00 | 46 | 1022.0 |
| 20260503150929 | 55 | 124 | 0.0 | 0.0 | 0.00 | 0.00 | 0.00 | 47 | 1023.3 |
| 20260503150317 | 54 | 264 | 5.0 | 7.0 | 0.00 | 0.00 | 0.00 | 48 | 1023.3 |
| 20260503130953 | 45 | 197 | 0.0 | 0.0 | 0.00 | 0.00 | 0.00 | 67 | 1023.3 |
| 20260503110340 | 29 | 224 | 0.0 | 0.0 | 0.00 | 0.00 | 0.00 | 98 | 1022.3 |
| 20260503081547 | 31 | 224 | 0.0 | 0.0 | 0.00 | 0.00 | 0.00 | 97 | 1021.3 |
| 20260503080949 | 31 | 225 | 0.0 | 0.0 | 0.00 | 0.00 | 0.00 | 97 | 1021.3 |
| 20260503072739 | 32 | 224 | 0.0 | 0.0 | 0.00 | 0.00 | 0.00 | 97 | 1020.9 |
| 20260503072130 | 32 | 222 | 0.0 | 0.0 | 0.00 | 0.00 | 0.00 | 97 | 1020.9 |
| 20260503071549 | 32 | 224 | 0.0 | 0.0 | 0.00 | 0.00 | 0.00 | 97 | 1020.6 |
| 20260503070936 | 33 | 224 | 0.0 | 0.0 | 0.00 | 0.00 | 0.00 | 97 | 1020.6 |
| 20260503070324 | 33 | 224 | 0.0 | 0.0 | 0.00 | 0.00 | 0.00 | 97 | 1020.6 |
| 20260503054554 | 36 | 224 | 0.0 | 0.0 | 0.00 | 0.00 | 0.00 | 96 | 1020.6 |
| 20260503053919 | 36 | 225 | 0.0 | 0.0 | 0.00 | 0.00 | 0.00 | 96 | 1020.6 |
| 20260503053347 | 36 | 227 | 0.0 | 0.0 | 0.00 | 0.00 | 0.00 | 96 | 1020.6 |
| 20260503052747 | 37 | 223 | 0.0 | 0.0 | 0.00 | 0.00 | 0.00 | 96 | 1020.6 |
| 20260503051524 | 37 | 221 | 0.0 | 0.0 | 0.00 | 0.00 | 0.00 | 96 | 1020.6 |
| 20260503050931 | 37 | 222 | 0.0 | 0.0 | 0.00 | 0.00 | 0.00 | 96 | 1020.9 |
| 20260503050352 | 37 | 224 | 0.0 | 0.0 | 0.00 | 0.00 | 0.00 | 96 | 1020.6 |
| 20260503045715 | 37 | 222 | 0.0 | 0.0 | 0.00 | 0.00 | 0.00 | 96 | 1020.9 |
| 20260503044527 | 36 | 211 | 0.0 | 0.0 | 0.00 | 0.00 | 0.00 | 96 | 1020.6 |
| 20260503043920 | 36 | 191 | 0.0 | 0.0 | 0.00 | 0.00 | 0.00 | 96 | 1020.3 |
| 20260503043328 | 36 | 224 | 0.0 | 0.0 | 0.00 | 0.00 | 0.00 | 96 | 1020.6 |
| 20260503042146 | 36 | 224 | 0.0 | 0.0 | 0.00 | 0.00 | 0.00 | 95 | 1020.3 |
| 20260503041521 | 36 | 225 | 0.0 | 0.0 | 0.00 | 0.00 | 0.00 | 95 | 1020.6 |
| 20260503040953 | 36 | 224 | 0.0 | 0.0 | 0.00 | 0.00 | 0.00 | 95 | 1020.3 |
| 20260503035115 | 36 | 229 | 0.0 | 0.0 | 0.00 | 0.00 | 0.02 | 95 | 1020.3 |
| 20260503034548 | 37 | 226 | 0.0 | 0.0 | 0.00 | 0.00 | 0.02 | 95 | 1020.3 |
| 20260503033930 | 37 | 224 | 0.0 | 0.0 | 0.00 | 0.00 | 0.02 | 95 | 1019.9 |
| 20260503033342 | 37 | 224 | 0.0 | 0.0 | 0.00 | 0.00 | 0.02 | 95 | 1019.9 |
| 20260503032733 | 38 | 221 | 0.0 | 0.0 | 0.00 | 0.00 | 0.02 | 95 | 1019.9 |
| 20260503031530 | 38 | 221 | 0.0 | 0.0 | 0.00 | 0.00 | 0.02 | 95 | 1020.3 |
| 20260503030942 | 39 | 233 | 0.0 | 0.0 | 0.00 | 0.00 | 0.02 | 94 | 1020.3 |
| 20260503030315 | 39 | 224 | 0.0 | 0.0 | 0.00 | 0.00 | 0.02 | 94 | 1019.9 |
| 20260503025735 | 40 | 223 | 0.0 | 0.0 | 0.00 | 0.00 | 0.02 | 93 | 1019.9 |
| 20260503025140 | 40 | 226 | 0.0 | 0.0 | 0.00 | 0.00 | 0.02 | 93 | 1019.9 |
| 20260503023940 | 41 | 224 | 0.0 | 0.0 | 0.00 | 0.00 | 0.02 | 92 | 1019.6 |
| 20260503023333 | 42 | 220 | 0.0 | 0.0 | 0.00 | 0.00 | 0.02 | 92 | 1019.9 |
| 20260503022730 | 42 | 230 | 0.0 | 0.0 | 0.00 | 0.00 | 0.02 | 92 | 1019.6 |
| 20260503022138 | 42 | 224 | 0.0 | 0.0 | 0.00 | 0.00 | 0.02 | 91 | 1019.6 |
| 20260503021544 | 43 | 224 | 0.0 | 0.0 | 0.00 | 0.00 | 0.02 | 90 | 1019.6 |
| 20260503020927 | 44 | 221 | 0.0 | 0.0 | 0.00 | 0.00 | 0.02 | 89 | 1019.6 |
| 20260503020342 | 44 | 230 | 0.0 | 0.0 | 0.00 | 0.00 | 0.02 | 89 | 1019.6 |
| 20260503015731 | 45 | 224 | 0.0 | 0.0 | 0.00 | 0.00 | 0.02 | 88 | 1019.6 |
| 20260503015115 | 46 | 225 | 0.0 | 0.0 | 0.00 | 0.00 | 0.02 | 87 | 1019.6 |
| 20260503014529 | 46 | 229 | 0.0 | 0.0 | 0.00 | 0.00 | 0.02 | 86 | 1019.6 |
| 20260503013946 | 47 | 226 | 0.0 | 0.0 | 0.00 | 0.00 | 0.02 | 84 | 1019.3 |
| 20260503012744 | 48 | 244 | 0.0 | 0.0 | 0.00 | 0.00 | 0.02 | 84 | 1018.9 |
| 20260503012116 | 48 | 231 | 0.0 | 0.0 | 0.00 | 0.00 | 0.02 | 83 | 1019.3 |
| 20260503011539 | 48 | 229 | 0.0 | 0.0 | 0.00 | 0.00 | 0.02 | 80 | 1018.9 |
| 20260503010928 | 49 | 229 | 0.0 | 0.0 | 0.00 | 0.00 | 0.02 | 79 | 1018.6 |
| 20260503010349 | 49 | 231 | 0.0 | 0.0 | 0.00 | 0.00 | 0.02 | 80 | 1018.9 |
| 20260503005711 | 49 | 230 | 0.0 | 0.0 | 0.00 | 0.00 | 0.02 | 79 | 1018.9 |
| 20260503005152 | 49 | 237 | 0.0 | 0.0 | 0.00 | 0.00 | 0.02 | 77 | 1018.6 |
| 20260503004515 | 50 | 249 | 0.0 | 0.0 | 0.00 | 0.00 | 0.02 | 77 | 1018.6 |
| 20260503003347 | 50 | 252 | 0.0 | 0.0 | 0.00 | 0.00 | 0.02 | 73 | 1018.6 |
| 20260503002754 | 50 | 233 | 0.0 | 0.0 | 0.00 | 0.00 | 0.02 | 77 | 1018.6 |
| 20260503002139 | 50 | 243 | 0.0 | 0.0 | 0.00 | 0.00 | 0.02 | 77 | 1018.6 |
| 20260503001523 | 50 | 233 | 0.0 | 0.0 | 0.00 | 0.00 | 0.02 | 69 | 1018.2 |
| 20260503000934 | 50 | 236 | 0.0 | 0.0 | 0.00 | 0.00 | 0.02 | 71 | 1018.2 |
| 20260503000335 | 51 | 243 | 0.0 | 0.0 | 0.00 | 0.00 | 0.02 | 69 | 1018.2 |
| 20260502235738 | 51 | 236 | 0.0 | 0.0 | 0.00 | 0.00 | 0.02 | 74 | 1018.2 |
| 20260502235138 | 51 | 237 | 0.0 | 0.0 | 0.00 | 0.00 | 0.02 | 67 | 1017.9 |